Tracking 31027 objects as of 19-Jul-2025
HD Live streaming from Space Station
objects crossing your sky now

FENGYUN 1C DEB

Track FENGYUN 1C DEB now!
10-day predictions


NORAD ID: 31655
Int'l Code: 1999-025CBM
Perigee: 816.8 km
Apogee: 1,251.3 km
Inclination: 99.3 °
Period: 105.7 minutes
Semi major axis: 7405 km
RCS: 0.0098 m2 (small)
Launch date: May 10, 1999
Source: People's Republic of China (PRC)
Launch site: Taiyaun Space Center, China (TSC)

Note: This is SATELLITE DEBRIS
Your satellite tracking list
NOAA 16 DEB
Track 1 satellite(s)




NASA's NSSDC Master Catalog

Two Line Element Set (TLE):
1 31655U 99025CBM 25198.68904258  .00002131  00000-0  20967-2 0  9995
2 31655  99.2872 151.2058 0293423 159.0225 326.2933 13.62421078577021
Source of the keplerian elements: AFSPC